Location: Bergheim
(50.9593°N, 6.6400°E)
Time: 12:16:53
(UTC+01:00)

ISS - Pass Details

Date: 27 November 2019
Orbit: 411 x 421 km, 51.6° (Epoch: 15 December)

Event Time Altitude Azimuth Distance (km) Brightness Sun altitude
Rises 19:11:12 0° 258° (WSW) 2,357 1.5 -24.1°
Reaches altitude 10° 19:13:17 10° 259° (W) 1,497 0.1 -24.4°
Enters shadow 19:15:24 36° 260° (W) 686 -2.2 -24.7°
